Погода в Борках

Россия / Псковская область     56°00′00″N   29°58′05″E
темп.,
°C
ветер,
м/с
пор.,
м/с
влажн.,
%
обл.,
%
осадки,
мм/ч
давл.,
гПа
погр.,
м
20 апреля, вт
вт2000:00+7всв387895 0.0 1021345
03:00+6всв2583100 0.0 1020195
06:00+6св3685100 0.1 1019531
09:00+6всв3686100 0.8 1019735
12:00+6в4680100 0.3 1018913
15:00+6в3580100 0.3 1017836
18:00+5в3592100 0.1 1016734
21:00+4всв2696100 0.2 1015744
21 апреля, ср
ср2100:00+5ссв249596 0.1 1013279
03:00+4ссв2494100 0.1 1011252
06:00+4с1494100 0.0 1009257
09:00+5ссз3682100 0.0 1008599
12:00+8сз4665100 0.1 10061281
15:00+8зсз4663100 0.4 10061354
18:00+9з356165 0.1 10061165
21:00+5юз257911 0.1 100797
22 апреля, чт
чт2200:00+4ююз278653 0.0 1008139
03:00+5ююз3118353 0.0 1008282
06:00+4ююз3992100 0.0 1009195
09:00+9ююз367280 0.0 1009422
12:00+13ююз464652 0.1 10092048
15:00+14ю464554 0.1 10091862
18:00+13ю475468 0.1 10091428
21:00+9зюз2683100 0.6 1010159
23 апреля, пт
пт2300:00+6сз1194100 0.0 101019
03:00+7сз1289100 0.1 1009198
06:00+4зюз2394100 5.0 1010349
09:00+6юз4680100 5.1 1011889
12:00+8ююз5757100 0.2 10111673
15:00+9ююз5748100 0.3 10112002
18:00+7ююз4760100 0.3 10101231
21:00+4ююз2379100 0.6 101056
24 апреля, сб
сб2400:00+2юз258678 0.0 1010102
03:00+1зюз389673 0.0 1010417
06:00+2з4773100 0.0 10101013
09:00+2з4675100 0.1 1010966
12:00+3з4574100 0.3 10111041
15:00+6зсз4555100 0.9 10101582
18:00+5зсз4667100 0.8 10101189
21:00+2зсз3883100 1.4 1011399